Presure
245 227 242 202 208 184 189 203 181 196 204 167 178 198 162 171 180 178 189 191 176 198 183 188 213 187 198 193 228 205 213 196 192 193 119 209 190 190 193 193 191 192 185
255 217 244 230 179 198 181 203 183 181 190 169 166 164 172 171 176 193 193 150 126 171 183 194 194 213 215 204 200 201 194 193 193 202 193 192 194 199 196 197 194 195 195
241 241 227 244 213 199 200 185 189 180 175 175 188 182 184 176 186 193 180 185 192 207 197 191 187 167 200 195 195 195 193 199 193 193 191 190 197 190 194 204 213 207 236
246 241 233 238 215 213 220 205 201 190 191 190 195 187 188 193 191 195 205 208 192 221 211 204 199 195 193 208 199 193 199 215 201 195 207 207 205 206 206 229 224 223 208
254 234 236 231 230 133 224 245 190 179 182 190 230 220 185 206 201 242 231 214 212 204 200 198 193 196 192 195 205 195 196 203 199 204 204 208 234 223 214 211 233 232 228
251 252 243 224 231 228 226 211 201 199 204 208 222 229 223 225 215 209 201 199 202 206 201 203 186 147 200 196 203 203 201 208 215 216 229 219 213 218 228 220 222 223 229
227 257 262 251 234 222 222 221 221 220 219 234 222 212 215 210 200 201 201 201 199 198 198 199 199 196 199 218 228 243 249 236 228 216 196 215 217 218 199 210 223 230 224
248 214 250 266 234 225 229 217 215 218 213 219 207 210 207 215 214 206 213 218 213 229 214 204 217 219 211 219 241 220 221 199 195 216 216 212 215 213 213 214 221 220 219
261 246 217 245 250 267 229 228 232 221 211 212 217 204 202 213 218 221 201 200 202 203 202 202 211 203 208 213 204 194 213 205 208 195 200 208 200 202 224 209 216 217 228
211 217 264 206 234 244 254 242 225 211 208 206 198 208 227 201 198 191 192 195 187 211 200 215 206 204 208 217 197 194 196 192 200 204 207 204 207 229 211 212 211 202 215
217 192 215 266 235 212 246 249 251 229 218 196 214 212 184 203 172 194 200 192 196 201 198 190 184 169 193 187 196 189 189 203 194 204 198 210 202 199 202 214 210 206 210
209 219 201 198 260 243 232 204 241 252 253 254 223 209 198 187 189 191 182 201 170 190 188 199 189 188 181 201 188 184 195 193 196 199 195 204 208 196 201 205 205 215 218
209 222 236 187 186 239 225 236 235 249 239 205 209 200 193 209 201 181 175 179 179 174 179 175 199 187 188 185 189 184 204 203 205 190 194 194 193 203 204 215 215 183 199
130 205 202 251 195 182 246 228 232 244 225 231 226 205 211 205 196 194 182 203 184 188 179 185 185 188 188 188 186 189 198 207 195 195 192 198 204 193 202 185 217 222 217
223 209 197 230 246 195 204 252 226 220 242 227 203 205 196 191 190 197 196 185 190 189 183 180 180 184 186 192 216 196 196 199 196 201 202 212 215 224 198 226 217 220 240
167 197 196 213 209 252 191 197 182 237 217 230 220 207 200 197 191 189 187 191 188 190 193 189 191 194 197 195 199 206 206 201 205 216 219 220 228 229 219 222 229 246 214
216 191 207 201 203 220 224 256 235 208 174 171 221 226 214 214 210 208 204 203 203 203 203 205 205 205 204 206 213 212 204 225 232 239 233 229 225 221 224 233 236 235 222
191 212 181 204 190 210 211 196 224 222 232 204 187 250 233 263 260 266 266 269 279 275 267 253 250 256 258 263 260 257 247 240 237 233 230 229 243 239 231 221 220 225 210
188 215 205 205 184 190 187 198 186 195 220 237 209 249 199 204 208 250 250 255 261 265 293 285 273 250 259 252 248 244 241 240 237 239 211 237 207 223 203 213 220 205 212
203 177 210 167 201 178 182 194 200 192 200 194 217 195 191 217 222 198 231 216 223 230 230 232 264 266 230 243 218 196 238 234 212 231 228 199 202 211 219 206 230 242 238
190 192 212 210 194 186 186 192 181 174 211 188 208 202 216 198 198 225 216 218 227 214 214 218 239 231 250 249 223 190 249 218 216 210 226 225 218 223 220 239 232 223 240
183 214 213 210 201 208 205 190 192 170 191 179 222 217 193 204 205 203 219 219 204 196 209 220 222 223 229 229 228 241 244 226 216 216 243 238 234 231 237 236 239 239 237
230 215 183 207 207 202 205 222 181 192 208 213 195 223 229 207 190 204 196 220 202 210 216 205 209 225 212 215 231 213 213 228 232 230 228 232 241 243 237 241 238 239 240
226 218 209 203 195 190 201 191 197 206 193 197 193 219 222 226 191 205 207 215 220 205 205 200 190 219 224 224 219 231 233 240 244 239 237 246 238 237 245 230 242 240 242
228 212 209 209 191 195 208 211 213 210 203 192 207 213 226 224 220 217 216 211 204 213 199 206 215 223 220 221 213 236 226 239 241 232 245 240 242 246 239 240 235 247 240
224 201 210 211 202 197 204 206 202 213 195 205 206 213 221 224 224 213 215 212 225 220 202 199 222 220 224 214 221 229 236 243 230 244 240 243 244 239 240 230 244 239 259
Wind_Speed
19 37 32 64 76 54 69 90 70 81 93 44 64 93 43 55 65 61 75 79 69 80 68 71 69 70 68 68 61 69 65 65 71 76 58 69 77 80 83 86 90 92 90
17 35 25 46 44 73 53 85 63 67 84 48 47 50 66 59 60 77 79 51 36 58 62 73 72 61 57 62 66 69 70 73 74 74 76 80 84 85 85 87 89 93 96
21 26 31 32 64 63 72 58 63 52 43 53 76 80 77 65 70 72 64 68 73 69 69 75 60 57 63 65 67 71 74 78 80 79 78 82 87 85 91 91 89 88 81
26 23 30 33 60 62 75 80 84 73 76 72 80 79 80 80 75 76 85 87 73 66 64 60 59 63 67 64 71 74 79 78 83 83 81 82 84 84 85 79 79 76 84
21 26 30 32 47 36 67 50 56 47 55 71 78 88 66 86 76 48 47 57 52 55 59 61 63 64 66 70 70 71 73 75 77 79 79 78 72 75 75 77 74 74 77
18 21 30 35 36 38 50 67 67 68 73 76 70 65 53 43 46 49 52 53 56 57 59 65 65 51 72 73 74 72 75 76 78 77 68 69 70 72 74 73 76 78 79
16 20 22 36 36 40 43 43 46 44 45 40 43 41 42 43 45 48 51 53 55 58 59 63 67 70 76 75 69 64 62 65 65 67 69 70 72 73 77 78 81 82 83
18 12 17 26 37 37 48 43 40 40 34 33 31 35 33 37 39 42 46 52 56 58 63 63 61 60 68 69 62 56 57 60 62 71 73 72 76 77 80 82 84 84 86
21 20 14 22 24 35 43 41 42 42 42 39 37 33 33 33 32 27 31 37 38 42 48 52 51 60 67 68 61 58 66 66 66 68 72 75 77 80 90 84 86 86 92
22 23 26 17 22 32 34 43 40 31 31 33 37 38 37 19 23 31 35 41 47 43 48 51 54 60 66 68 61 65 66 68 72 75 79 79 82 91 86 88 88 87 89
17 24 25 27 26 19 31 33 39 47 37 34 42 34 26 23 44 31 26 36 34 41 51 56 58 48 62 64 71 70 73 87 82 85 81 85 85 87 88 90 91 93 93
15 11 23 26 27 32 28 21 35 39 40 33 35 34 30 31 35 35 39 39 41 36 62 70 64 72 70 78 76 76 88 85 86 87 86 88 90 91 91 92 95 95 96
20 15 13 24 26 25 25 32 33 38 34 39 41 37 41 33 35 44 43 45 42 59 63 64 74 80 80 81 84 80 95 95 93 87 89 89 90 93 94 94 94 86 95
31 24 15 16 21 31 25 25 28 36 26 35 41 43 42 38 36 43 50 50 54 62 69 72 76 84 87 87 86 92 97 94 92 92 90 93 95 86 93 87 93 96 99
42 36 23 23 14 25 24 22 25 25 30 36 36 40 44 44 43 47 55 54 60 67 72 74 79 86 90 95 92 98 97 96 95 96 96 95 93 90 94 90 96 97 89
38 37 33 25 15 23 27 26 34 23 25 35 38 44 45 48 51 54 55 61 63 69 76 81 86 91 92 92 94 94 94 94 94 94 91 90 87 87 92 94 95 86 101
46 38 44 32 22 24 18 25 20 26 41 46 40 44 47 53 57 61 65 67 70 75 80 83 85 88 89 92 94 93 92 91 84 80 81 83 84 89 92 93 90 97 102
35 48 39 43 33 35 25 23 22 22 23 27 40 32 37 33 39 39 46 49 52 58 64 73 77 75 73 71 71 70 72 75 76 78 81 83 78 82 84 93 93 100 107
34 45 49 47 42 35 36 31 34 25 28 26 32 24 42 40 44 31 32 33 34 40 51 56 59 61 62 64 66 69 72 73 75 80 77 81 83 87 90 98 101 101 106
51 37 55 43 46 47 43 44 40 35 38 35 40 39 45 47 43 51 39 55 51 44 46 50 54 59 60 63 65 67 73 72 74 75 78 80 86 95 98 99 96 95 94
50 47 56 58 50 47 47 47 41 48 47 44 47 46 48 49 53 48 49 50 46 51 53 55 57 59 61 66 68 71 74 77 81 84 87 89 96 96 102 94 96 102 96
48 53 57 59 59 58 54 52 52 51 51 48 52 52 51 56 58 60 55 55 56 58 58 56 58 60 65 67 68 69 72 79 86 88 84 87 90 94 93 95 99 99 100
51 55 51 59 60 58 59 57 50 59 59 56 56 62 61 60 57 63 60 61 63 63 61 63 64 66 68 70 75 76 78 79 83 86 90 90 90 92 94 99 99 105 109
56 56 59 62 62 57 64 54 60 61 61 61 61 65 67 65 61 65 69 69 66 69 69 71 74 71 75 76 75 87 88 89 87 86 89 93 92 93 100 94 110 108 115
59 61 61 63 60 64 69 67 66 65 67 62 68 69 70 71 70 73 74 74 67 74 75 76 78 81 81 83 82 96 94 95 93 93 95 94 98 103 99 108 105 123 119
62 62 63 67 68 65 70 72 68 70 69 72 73 73 75 76 76 76 78 78 80 77 78 81 84 86 89 86 96 100 102 97 98 98 98 102 105 105 111 101 124 120 132
Wind_Direction
238 216 229 212 212 225 223 222 234 232 231 248 249 242 270 274 275 275 275 272 279 281 282 287 282 285 286 284 288 286 290 286 285 284 282 283 288 288 292 289 290 289 291
252 229 242 223 228 219 235 227 238 241 239 251 255 265 262 268 271 274 273 271 267 277 280 284 283 285 284 283 285 287 287 284 285 283 286 287 287 287 288 288 289 289 291
262 238 236 238 215 221 226 234 232 240 249 253 249 254 259 264 269 269 273 277 277 280 281 282 275 275 280 279 280 280 281 279 280 283 285 286 284 289 288 288 287 290 293
257 245 234 234 219 225 226 229 230 236 242 248 250 251 255 261 269 273 272 271 273 279 273 273 273 274 276 277 276 279 277 278 276 279 279 282 284 286 288 292 290 290 287
253 238 233 230 226 253 227 239 235 244 246 247 254 255 258 264 269 269 270 269 273 276 278 279 277 278 278 281 283 281 282 281 281 281 284 286 290 288 288 288 296 296 295
262 245 236 234 226 227 229 232 233 238 243 250 252 252 252 258 261 265 269 272 274 278 278 278 280 279 281 281 280 279 280 284 284 286 286 289 289 294 298 296 296 296 298
291 263 253 233 231 232 232 232 231 231 236 245 246 255 260 263 265 267 270 276 278 278 278 280 279 281 282 284 286 284 284 286 286 285 287 295 298 299 292 297 299 300 300
295 284 264 254 230 237 234 243 243 249 251 254 261 269 268 273 272 275 277 274 276 284 282 282 286 286 283 286 284 289 290 294 291 297 299 300 302 300 299 299 300 301 301
312 290 275 266 246 249 239 242 243 244 250 253 248 257 262 269 271 281 284 289 286 285 284 281 281 281 286 287 289 295 301 301 300 295 297 300 299 300 299 301 300 301 300
312 306 283 269 263 247 246 243 242 240 237 235 239 251 257 263 265 268 272 282 286 299 293 291 287 287 291 291 296 300 299 297 299 301 301 300 300 297 300 300 301 301 300
307 297 294 277 274 263 256 250 248 247 242 251 259 249 254 267 268 273 277 288 308 304 294 292 299 290 295 298 296 302 304 301 302 301 302 300 301 301 301 300 300 300 302
289 283 282 288 270 271 273 260 248 247 244 237 249 250 251 240 259 265 275 263 285 263 272 274 290 299 305 295 303 303 299 299 299 299 302 300 298 299 299 299 300 300 300
296 302 300 275 290 262 263 269 267 255 246 252 244 251 254 258 239 270 283 274 274 281 287 301 273 296 298 300 297 301 296 295 295 300 297 298 298 296 297 297 297 301 302
263 289 264 315 265 280 249 263 266 265 254 243 242 252 245 247 261 251 283 251 271 266 289 287 288 291 291 294 298 294 290 290 293 294 295 294 293 298 296 300 296 298 301
302 301 282 317 309 262 271 248 258 260 255 248 253 258 265 277 278 266 261 280 273 276 286 290 291 290 289 286 280 285 286 288 290 289 290 291 294 293 298 298 298 300 303
259 288 283 304 272 328 262 263 274 255 257 251 249 251 261 264 273 276 279 277 278 275 272 275 276 276 276 279 279 280 282 285 287 286 290 290 291 294 295 297 299 302 302
307 275 297 293 280 309 312 310 298 272 276 280 255 249 257 258 261 264 267 269 269 269 269 269 271 274 277 277 277 280 285 284 286 289 289 289 293 295 296 298 301 301 302
281 293 268 297 287 302 295 267 291 291 285 259 265 258 267 267 267 274 275 277 279 278 276 274 275 278 283 286 287 287 286 286 287 289 291 294 295 295 297 298 305 305 308
278 285 282 286 279 282 271 283 270 265 295 285 279 265 260 276 282 286 294 304 310 309 295 291 287 285 286 285 287 288 290 291 292 295 295 292 300 296 304 303 299 308 308
287 249 279 262 283 263 270 291 295 285 293 289 291 284 277 288 285 289 290 286 288 298 304 304 311 300 295 297 292 291 291 293 296 297 296 300 303 302 299 305 301 312 308
273 275 276 277 280 275 276 286 273 275 291 286 290 289 285 291 294 288 290 296 301 297 299 306 318 310 304 300 301 291 291 299 299 300 298 297 296 297 298 306 304 303 313
267 269 270 274 278 280 279 282 285 273 288 277 288 292 294 296 297 299 295 295 297 296 299 308 309 312 318 313 310 306 300 298 299 301 300 302 300 299 307 305 310 313 314
265 265 263 273 276 280 282 283 280 286 290 294 293 297 295 293 294 296 299 297 295 296 300 298 304 311 304 309 316 304 304 306 302 301 300 302 305 311 307 311 312 315 316
262 261 265 270 274 281 282 283 285 285 287 292 293 298 297 294 295 296 298 299 297 295 296 297 299 309 310 310 305 313 313 310 306 305 305 308 309 308 314 309 316 316 317
257 261 265 266 276 280 280 284 286 287 288 289 293 298 300 297 295 296 299 299 296 296 298 299 306 311 310 312 307 314 312 310 307 305 310 310 312 315 315 317 315 318 317
253 266 263 265 269 278 280 282 285 287 286 290 292 298 300 298 297 298 298 300 302 299 296 300 310 310 312 310 314 313 312 309 306 310 312 315 317 317 318 315 317 316 314